Gwinn, MI

5:31 PM EST on December 07, 2016 (GMT -0500)
Sawyer International

Weather History for KSAW - October, 2013

Change the Weather History Date:

Sunday, October 13, 2013

  Actual Average (KESC) Record (KESC)
Temperature  
Mean Temperature 43 °F -  
Max Temperature 51 °F 54 °F 77 °F (1996)
Min Temperature 35 °F 40 °F 25 °F (1993)
Degree Days  
Heating Degree Days 22    
Moisture  
Dew Point 39 °F    
Average Humidity 77    
Maximum Humidity 93    
Minimum Humidity 58    
Precipitation  
Precipitation 0.00 in - - ()
Sea Level Pressure  
Sea Level Pressure 30.20 in    
Wind  
Wind Speed 6 mph (West)    
Max Wind Speed 12 mph    
Max Gust Speed 18 mph    
Visibility 10 miles    
Events      
Averages and records for this station are not official NWS values.
T = Trace of Precipitation, MM = Missing Value Source: NWS Daily Summary

Daily Weather History Graph

Daily Weather History Graph

Search for Another Location

Airport or City:

Trip Planner

Search our weather history database for the weather conditions in past years. The results will help you decide how hot, cold, wet, or windy it might be!

Date:

Astronomy

Oct. 13, 2013 Rise Set
Actual Time 8:04 AM EDT 7:06 PM EDT
Civil Twilight 7:34 AM EDT 7:36 PM EDT
Nautical Twilight 6:59 AM EDT 8:11 PM EDT
Astronomical Twilight 6:24 AM EDT 8:46 PM EDT
Moon 4:13 PM EDT (10/13) 1:55 AM EDT (10/13)
Length of Visible Light 12h 02m
Length of Day
11h 01m
Waxing Gibbous, 69% of the Moon is Illuminated
Oct 13
Waxing Gibbous
Oct 18
Full
Oct 26
Last Quarter
Nov 3
New
Nov 10
First Quarter

Hourly Weather History & Observations

Time (EDT) Temp. Windchill Dew Point Humidity Pressure Visibility Wind Dir Wind Speed Gust Speed Precip Events Conditions
12:16 AM 50.9 °F - 41.4 °F 70% 29.99 in 10.0 mi West 8.1 mph - N/A   Overcast
12:37 AM 51.1 °F - 41.0 °F 68% 29.99 in 10.0 mi West 8.1 mph - N/A   Overcast
12:56 AM 50.2 °F - 41.2 °F 71% 30.00 in 10.0 mi West 6.9 mph - N/A   Mostly Cloudy
1:17 AM 49.3 °F - 41.0 °F 73% 30.01 in 10.0 mi West 8.1 mph - N/A   Scattered Clouds
1:36 AM 48.7 °F - 40.6 °F 74% 30.02 in 10.0 mi West 6.9 mph - N/A   Clear
1:57 AM 48.2 °F - 40.5 °F 75% 30.03 in 10.0 mi West 8.1 mph - N/A   Clear
2:16 AM 48.0 °F - 40.1 °F 74% 30.04 in 10.0 mi WSW 10.4 mph - N/A   Clear
2:37 AM 47.3 °F - 40.1 °F 76% 30.05 in 10.0 mi WSW 8.1 mph - N/A   Clear
2:56 AM 46.0 °F 43.1 °F 40.1 °F 80% 30.06 in 10.0 mi SW 5.8 mph - N/A   Clear
3:16 AM 45.1 °F 40.8 °F 39.6 °F 81% 30.07 in 10.0 mi WSW 8.1 mph - N/A   Clear
3:37 AM 44.8 °F 40.4 °F 39.9 °F 83% 30.07 in 10.0 mi SW 8.1 mph - N/A   Scattered Clouds
3:56 AM 45.5 °F 41.3 °F 40.6 °F 83% 30.08 in 10.0 mi SW 8.1 mph - N/A   Overcast
4:17 AM 45.7 °F 42.0 °F 40.5 °F 82% 30.08 in 10.0 mi WSW 6.9 mph - N/A   Overcast
4:36 AM 45.5 °F 41.3 °F 40.5 °F 83% 30.09 in 10.0 mi WSW 8.1 mph - N/A   Mostly Cloudy
4:57 AM 46.0 °F 41.9 °F 41.0 °F 83% 30.09 in 10.0 mi West 8.1 mph - N/A   Mostly Cloudy
5:17 AM 46.4 °F - 41.4 °F 83% 30.11 in 10.0 mi Calm Calm - N/A   Mostly Cloudy
5:36 AM 46.4 °F - 41.4 °F 83% 30.11 in 10.0 mi Calm Calm - N/A   Mostly Cloudy
5:57 AM 46.4 °F - 41.4 °F 83% 30.11 in 10.0 mi Calm Calm - N/A   Mostly Cloudy
6:55 AM 46.4 °F - 42.8 °F 87% 30.14 in 10.0 mi Calm Calm - N/A   Overcast
7:50 AM 48.2 °F - 42.8 °F 82% 30.16 in 10.0 mi NW 3.5 mph - N/A   Overcast
8:50 AM 48.2 °F - 42.8 °F 82% 30.20 in 10.0 mi Calm Calm - N/A   Overcast
9:50 AM 48.2 °F - 41.0 °F 76% 30.24 in 10.0 mi NW 5.8 mph - N/A   Overcast
10:50 AM 50.0 °F - 41.0 °F 71% 30.27 in 10.0 mi NW 10.4 mph 18.4 mph N/A   Overcast
11:50 AM 51.8 °F - 41.0 °F 67% 30.29 in 10.0 mi NW 8.1 mph - N/A   Mostly Cloudy
12:50 PM 51.8 °F - 39.2 °F 62% 30.31 in 10.0 mi NW 11.5 mph 17.3 mph N/A   Mostly Cloudy
1:55 PM 51.8 °F - 39.2 °F 62% 30.32 in 10.0 mi WNW 10.4 mph - N/A   Overcast
2:55 PM 51.8 °F - 39.2 °F 62% 30.31 in 10.0 mi East 5.8 mph - N/A   Mostly Cloudy
3:55 PM 51.8 °F - 39.2 °F 62% 30.32 in 10.0 mi NE 10.4 mph - N/A   Mostly Cloudy
4:50 PM 51.8 °F - 37.4 °F 58% 30.33 in 10.0 mi NE 5.8 mph - N/A   Scattered Clouds
5:50 PM 51.8 °F - 39.2 °F 62% 30.33 in 10.0 mi ENE 8.1 mph - N/A   Clear
6:50 PM 48.2 °F - 37.4 °F 66% 30.34 in 10.0 mi NE 4.6 mph - N/A   Clear
7:55 PM 44.6 °F - 37.4 °F 76% 30.36 in 10.0 mi Calm Calm - N/A   Clear
8:55 PM 39.2 °F - 35.6 °F 87% 30.37 in 10.0 mi Calm Calm - N/A   Clear
9:45 PM 37.4 °F - 33.8 °F 87% 30.38 in 10.0 mi Calm Calm - N/A   Clear
10:17 PM 36.0 °F - 32.7 °F 88% 30.39 in 10.0 mi Calm Calm - N/A   Clear
10:36 PM 36.3 °F - 33.8 °F 91% 30.39 in 10.0 mi Calm Calm - N/A   Clear
10:56 PM 36.9 °F - 34.9 °F 93% 30.39 in 10.0 mi Calm Calm - N/A   Clear
11:17 PM 36.9 °F - 35.1 °F 93% 30.39 in 10.0 mi Calm Calm - N/A   Clear
11:36 PM 35.8 °F - 33.8 °F 92% 30.40 in 10.0 mi Calm Calm - N/A   Clear
11:57 PM 35.1 °F - 32.2 °F 89% 30.40 in 10.0 mi Calm Calm - N/A   Clear